DELTA 1 DEB, 7063

Orbit data source: Space-Track

DELTA 1 DEB, 7063 is space debris in SSO originally from a launch on Tue, 06 Nov 1973 UTC launched from the Air Force Western Test Range (AFWTR). Debris objects in space refer to the collection of defunct objects orbiting the Earth. Examples of debris include non-operational satellites, rocket bodies, and fragments generated from explosions, collisions, or faulty payload assembly.

Loading next visibility...
Identifier
7063, 1973-086BF
Orbit
SSO
Country
Flag of USUS
Related business
Manufacturer
Unknown
Mission
Spacecraft
Bus & Motor
Unknown
Mass
Unknown
Launch date (UTC)
1973-11-06 (53 years ago)
Launch vehicle
Unknown
Launch site
Air Force Western Test Range (AFWTR)
Object type
Payload
Rocket body
Debris
Shape & HBR
Unknown shape, 0.2 m
Radar Cross Section
Medium (>0.1 m² and <1 m²)

Expand to show TLE details & history
Last TLE update: 15 hours ago

TLE from 15 hours ago
0 DELTA 1 DEB
1 07063U 73086BF  26254.30224514 -.00000070  00000-0 -32678-4 0  9999
2 07063 102.4763  23.0535 0292240 257.2881 129.3465 13.00078099503567
Epoch: 2026-09-11T07:15Z
TLE epoch observation values (Epoch: 2026-09-11T07:15:13.980Z)
Latitude
28.45574°
Longitude
-82.93537°
Altitude
1,410.398 km
Speed
7.089 km/s
True Right ascension
01h 04m 48s
True Declination
28° 19' 26"
Sunlit
Object was in full shadow at epoch
Visualization orbit readout
Latitude
Unknown
Longitude
Unknown
Altitude
Unknown
Speed
Unknown
Apparent Right ascension
Unknown
Apparent Declination
Unknown
Sunlit
N/A
Visualization observer readout
Local Sidereal Time
14:43:00
Azimuth
Unknown
Elevation
Unknown
Doppler factor
Unknown
Orbital elements
Apogee altitude
1,482.504 km
Perigee altitude
1,036.111 km
Semi-major axis
7,637.445 km
Eccentricity
0.02922
Inclination
102.4763°
RAAN
23.0535°
Arg. of periapsis
257.2881°
True anomaly
131.87674°
Mean anomaly
129.3465°
Eccentric anomaly
130.6175°
Mean motion
3.25178 °/min
Orbital period
110.71 mins
BSTAR
-0.000032678
Loading maneuver chart data...
Computing Atmospheric mass density...
Loading historical data...
Loading historical data...
Loading historical data...
Loading historical data...
Loading historical data...
Loading historical data...
Loading historical data...

Documentation

Showing up to 5 results
|